User: anonymous   Login
Location: Unspecified
(0.0000°N, 0.0000°E)
Time: 20:54:34
(UTC+02:00)
Language:

ARIANE 5 R/B - Orbit

View from above orbital plane
View from above orbital plane
View from above satellite
View from above satellite

Ground track
Ground track

The orbit data is extracted from the following two-line orbital elements,

1 27510U 02040C   16274.51048595 -.00000090  00000-0  16282-3 0  9990
2 27510   5.4238 314.0769 7158706 132.1906 284.7399  2.27197583117000
Epoch (UTC): 30 September 2016 12:15:05
Eccentricity: 0.7158706
inclination: 5.4238°
perigee height: 566 km
apogee height: 35560 km
right ascension of ascending node: 314.0769°
argument of perigee: 132.1906°
revolutions per day: 2.27197583
mean anomaly at epoch: 284.7399°
orbit number at epoch: 11700

The dashed part of the orbit path shows where the satellite is in the earth's shadow,  

DLR